Back to catalog

QIANFAN-130

AliveCommunicationsPO
NORAD 69076·PAYLOAD·🇨🇳 China

Launched May 12, 2026 from Taiyuan Satellite Launch Center

Loading…

Next Passes (next 24 hours)

TLE

FreshSource: Space-Track

Epoch: Sep 14, 2026, 14:28 UTC

1 69076U 26104D   26257.60308947  .00000125  00000-0  17437-3 0  9993
2 69076  88.9913 332.3795 0002559 100.1449 259.9990 13.51033583 17216

Track QIANFAN-130 in real time with AllMySat

Download on the App Store